Flag for U.S.A. Weather past 2 weeks in Cocoa Beach, Florida, U.S.A.

Now
72 °F

Clear.


Feels Like: 70 °F
Forecast: 72 / 81 °F
Wind: 5 mph from Northwest

Location: Cocoa / Patrick Air Force Base

Current Time: Oct 20, 2014 at 6:42:16 AM

Latest Report: Oct 20, 2014 at 5:58 AM


Visibility: 10 mi

Pressure: 30.02 "Hg

Humidity: 90%

Dew point: 69 °F

Location of Cocoa BeachLocation

Historic Weather in Cocoa Beach — Graph

°F

Cocoa Beach temperature yesterday

Maximum temperature yesterday: 81 °F (at 3:58 PM)
Minimum temperature yesterday: 67 °F (at 7:58 AM)
Average temperature yesterday: 74 °F

Past Weeks' High & Low Weather Summary

 TemperatureHumidityPressure
High87 °F (Oct 14, 12:58 PM)96% (Oct 14, 10:58 PM)30.16 "Hg (Oct 14, 10:58 PM)
Low66 °F (Oct 5, 6:58 AM)45% (Oct 18, 3:58 PM)29.88 "Hg (Oct 16, 3:58 PM)
Average78 °F71%30.03 "Hg
* Reported Oct 5 5:58 AM — Oct 20 5:58 AM, Cocoa Beach, Weather by CustomWeather, © 2014

Note: Actual official high and low records may vary slightly from our data, if they occured in-between our weather recording intervals... More about our weather records

Advertising

Cocoa Beach weather history for previous 24 hours

 ConditionsComfort  
Time TempWeatherWind HumidityBarometerVisibility
5:58 AM
Oct 20
72 °FClear.5 mph90%30.02 "Hg10 mi
4:58 AM73 °FClear.5 mph92%30.01 "Hg10 mi
3:58 AM72 °FClear.6 mph93%30.02 "Hg10 mi
2:58 AM72 °FClear.5 mph92%30.02 "Hg10 mi
1:58 AM72 °FClear.5 mph91%30.03 "Hg10 mi
12:58 AM73 °FPassing clouds.5 mph89%30.04 "Hg10 mi
10:58 PM
Oct 19
75 °FPassing clouds.5 mph85%30.05 "Hg10 mi
9:58 PM75 °FClear.6 mph83%30.04 "Hg10 mi
8:58 PM76 °FClear.9 mph76%30.03 "Hg10 mi
7:58 PM77 °FClear.9 mph68%30.02 "Hg10 mi
6:58 PM77 °FScattered clouds.8 mph68%30.01 "Hg10 mi
5:58 PM79 °FPassing clouds.9 mph65%30.00 "Hg10 mi
4:58 PM80 °FSunny.10 mph66%30.00 "Hg10 mi
3:58 PM81 °FSunny.10 mph67%30.00 "Hg10 mi
2:58 PM80 °FScattered clouds.10 mph67%30.00 "Hg10 mi
1:58 PM81 °FSunny.10 mph68%30.01 "Hg8 mi
12:58 PM80 °FSunny.9 mph69%30.03 "Hg9 mi
11:58 AM78 °FSunny.6 mph72%30.04 "Hg7 mi
10:58 AM75 °FSunny.6 mph75%30.04 "Hg10 mi
9:58 AM72 °FSunny.9 mph80%30.03 "Hg10 mi
8:58 AM70 °FSunny.6 mph86%30.02 "Hg10 mi
7:58 AM67 °FClear.6 mph91%30.00 "Hg10 mi
6:58 AM67 °FClear.3 mph86%29.99 "Hg10 mi
Weather by CustomWeather, © 2014

See weather overviewHow to use our weather pages